Vorticity
7 6 4 5 5 4 3 2 1 -0 1 1 1 3 1 2 10 16 15 9 5 4 3 4 4 3 3 4 5 4 3 3 1 1 3 5 6 5 5 4 3 2 2 2 2 3 3 4 5 5 5 4 4 4 5 6 7 7 6 6 6 6 6 6 6 5 5 5 6 6 5 5 4 5 7 9 9 10 12 11 10 11 12 15 16
8 7 6 7 8 10 8 6 5 4 3 4 5 5 4 5 8 15 16 9 3 7 6 1 2 2 3 3 5 5 4 3 1 1 2 5 7 6 5 4 4 3 3 3 3 3 3 5 5 4 4 4 5 5 5 6 6 7 6 6 6 6 5 5 6 5 5 5 6 6 5 5 6 7 9 9 9 11 12 12 13 15 17 17 15
8 8 6 3 1 4 8 10 10 10 9 7 6 6 7 6 9 14 12 6 1 5 7 2 2 3 4 4 4 5 5 4 2 1 2 4 7 7 6 6 5 4 4 4 4 3 4 5 4 3 4 4 6 6 6 6 6 7 7 6 6 6 5 5 6 6 5 6 6 6 6 7 8 8 8 9 11 12 13 14 17 17 15 13 10
9 10 8 4 -2 -3 1 6 8 8 9 9 7 7 8 6 9 14 11 6 3 4 6 4 3 4 4 4 4 5 5 6 4 1 3 3 5 8 7 7 5 5 4 4 5 3 5 5 2 3 4 5 6 6 7 7 6 5 6 6 6 6 5 6 6 7 6 6 6 5 7 8 8 8 9 11 12 13 15 16 16 14 11 8 7
9 7 8 9 6 3 -1 1 6 7 7 8 9 8 10 12 11 10 10 7 6 6 7 8 6 6 5 4 5 5 6 7 5 1 3 3 4 8 8 7 7 5 5 4 4 5 6 3 2 6 6 6 6 6 8 8 7 6 5 5 5 6 5 6 7 7 7 5 5 6 8 9 8 9 11 12 13 15 17 15 12 9 7 6 6
8 6 5 4 4 4 3 5 5 4 4 5 7 6 7 14 15 7 7 6 6 6 6 8 6 5 5 5 6 6 6 6 6 2 2 3 4 7 8 8 7 5 5 2 3 6 4 3 6 8 7 6 6 8 8 8 8 7 5 5 5 6 5 6 7 6 5 4 5 7 8 8 9 10 12 12 15 17 15 11 8 7 7 8 9
3 4 3 2 3 2 8 15 6 1 5 5 4 3 3 4 8 5 4 4 3 4 4 4 3 2 3 5 7 7 5 5 6 4 1 3 4 6 8 7 7 5 3 1 4 5 2 5 7 6 5 6 9 8 6 6 7 7 6 5 6 5 6 7 6 6 4 3 6 9 8 8 10 11 12 14 16 15 11 8 8 9 10 11 12
-1 3 4 3 9 9 10 13 7 4 5 6 5 2 2 1 2 4 3 3 3 3 5 4 4 4 4 6 7 7 5 4 5 5 2 1 4 5 7 7 6 4 2 3 5 3 3 6 5 3 5 7 10 7 4 4 5 7 7 6 6 5 7 7 6 6 3 5 9 7 7 9 11 11 13 17 15 11 9 9 10 10 10 10 10
4 4 3 7 15 15 9 6 4 3 3 4 4 1 0 2 0 3 3 2 2 2 5 7 8 8 8 8 8 8 5 3 2 5 4 -1 3 5 6 6 4 3 4 5 3 3 4 4 2 4 6 8 8 5 4 4 5 5 6 6 6 7 7 8 7 5 4 7 7 4 6 10 11 12 17 17 11 10 10 10 9 8 8 7 7
11 10 11 21 20 12 6 0 -0 -1 1 2 -0 2 1 1 1 0 3 2 1 1 3 7 9 10 10 10 9 8 7 6 1 3 6 0 1 4 4 4 2 3 5 4 3 3 5 3 3 5 6 7 6 4 4 4 5 4 5 6 5 8 7 8 6 4 6 6 3 3 8 10 10 15 19 14 9 11 10 9 7 6 6 5 6
21 25 26 26 15 11 13 8 8 6 4 5 4 9 5 3 5 1 0 1 2 -0 1 7 10 10 9 11 11 8 5 7 6 5 4 1 2 3 3 1 1 4 6 4 4 4 4 5 4 6 5 5 5 4 3 3 6 5 4 5 5 8 7 7 6 5 6 4 2 5 10 10 12 19 17 11 10 10 7 7 6 6 5 5 5
14 12 11 7 7 8 13 13 17 18 6 6 10 14 17 16 17 14 6 1 2 -0 -2 3 7 10 10 8 10 10 7 5 10 14 3 -3 1 3 2 -0 3 6 5 4 4 3 3 6 7 7 5 4 4 3 4 4 5 7 5 4 5 7 8 7 6 7 6 3 3 7 11 11 16 20 14 10 10 7 5 6 5 5 5 5 5
0 -4 -3 -10 -4 -4 -1 1 2 16 8 2 2 -1 7 10 14 21 15 3 0 0 -2 -1 0 6 10 9 9 9 10 6 10 24 8 -6 1 3 2 -1 3 5 3 4 2 2 2 4 9 10 7 4 5 4 5 7 7 8 6 3 5 7 7 7 7 7 5 3 6 10 12 13 18 18 11 10 7 5 5 5 4 4 3 4 3
1 -5 3 -1 -2 -3 -2 -7 -13 8 10 3 4 -2 -1 -2 -3 6 12 7 3 2 -1 -1 -1 2 6 9 10 6 10 6 8 30 15 -6 2 3 2 0 1 4 1 3 2 1 1 4 10 9 7 5 4 5 6 9 10 10 7 4 4 7 7 6 8 6 4 4 8 12 12 16 20 14 9 7 4 5 5 4 4 3 3 3 2
16 3 3 3 3 4 3 -1 -10 -2 6 8 13 10 6 -1 -6 -5 4 10 9 4 2 1 -1 0 4 6 9 6 8 6 4 25 20 -5 -0 3 2 2 0 3 2 3 3 -1 2 15 17 7 3 4 4 6 8 11 12 11 7 5 5 6 5 6 8 5 4 6 10 12 13 19 18 10 6 5 4 4 4 3 4 3 3 4 4
15 16 10 2 1 4 2 5 1 -5 -3 -1 8 16 9 1 0 2 4 5 7 5 4 4 1 -1 1 5 9 7 6 8 0 16 30 3 -6 2 2 3 0 1 2 2 3 1 8 24 21 4 -1 1 6 10 10 12 12 10 6 6 6 5 5 7 8 5 5 7 11 12 15 21 13 5 4 4 4 4 4 4 3 4 5 6 8
-11 0 7 5 0 2 -1 0 4 5 0 -16 -9 11 16 12 2 2 8 5 6 6 5 3 4 1 0 4 8 10 5 8 3 8 37 20 -7 -2 2 3 1 -0 3 2 1 4 10 19 16 8 4 2 8 14 12 11 10 8 8 7 7 6 6 8 8 6 7 8 11 12 18 20 7 2 3 3 4 4 4 4 5 6 8 8 9
-6 -8 -4 0 -2 0 1 -1 -1 3 7 -5 -8 -5 4 19 7 0 8 7 6 4 6 5 4 3 2 4 4 12 7 6 6 2 27 30 0 -5 2 3 1 -0 2 3 1 5 11 11 10 9 5 3 11 14 9 9 9 8 8 8 8 7 7 8 7 7 7 9 12 13 20 16 2 1 2 2 4 4 4 5 6 7 8 9 9
3 -1 -3 -1 -2 -2 -1 0 0 -2 1 2 2 -9 -11 12 16 11 7 2 6 5 6 6 7 6 3 5 4 9 9 6 8 2 11 26 9 -4 4 3 -2 0 1 2 2 3 9 9 6 6 2 4 13 11 5 8 9 8 8 8 8 7 8 8 6 7 7 10 13 14 19 11 -1 1 1 3 4 4 6 5 6 6 8 9 9
3 3 2 2 1 2 1 1 2 2 1 0 3 -0 -6 1 4 13 18 12 12 8 8 10 9 11 5 5 5 6 10 7 7 6 5 17 13 -2 2 2 -4 1 1 -0 1 1 6 8 5 5 2 5 14 8 3 8 7 7 8 8 8 7 8 8 6 7 8 11 14 14 17 8 -2 0 0 3 5 6 6 5 6 6 8 9 9
3 4 3 3 2 3 5 4 5 5 6 6 5 6 6 5 -9 -9 3 8 18 11 5 12 7 9 10 6 6 5 8 7 7 7 4 9 15 6 -1 0 -0 -1 -0 -0 0 1 5 8 5 4 3 7 15 8 3 6 5 7 7 7 7 8 9 7 6 8 8 11 14 15 15 6 -2 -1 0 4 7 7 5 5 6 6 8 8 8
4 7 7 6 5 5 6 6 8 8 8 8 8 7 8 13 1 -16 -27 -18 20 21 -1 6 8 8 8 6 9 7 7 6 6 6 4 5 11 15 3 -1 4 -3 -2 2 2 3 5 7 6 5 3 10 16 7 3 5 4 6 6 7 8 9 9 6 7 7 8 11 13 14 13 5 -1 -1 2 8 8 5 5 6 6 7 10 9 7
5 7 8 9 8 8 8 6 7 8 10 10 8 8 6 10 8 1 -7 -9 18 26 6 -1 5 10 4 3 7 6 9 6 5 6 6 5 5 14 8 1 5 -2 -3 2 3 3 4 7 7 4 3 14 19 7 3 4 3 5 7 8 9 10 9 6 7 8 8 11 15 14 11 6 -0 0 6 9 4 3 5 6 6 9 11 9 7
5 6 7 11 11 10 11 10 12 11 13 14 13 12 9 11 6 5 12 9 8 16 20 7 -1 9 9 6 4 3 9 7 6 5 4 7 8 12 11 5 4 -1 -3 1 5 2 5 11 8 3 5 15 17 7 3 3 3 5 7 8 9 11 9 6 6 7 8 11 17 14 10 6 1 4 9 6 3 4 5 5 8 10 10 8 8
6 7 7 9 10 13 15 15 16 15 15 17 18 19 17 19 17 14 18 15 6 1 10 15 5 4 9 10 8 4 5 8 7 4 5 4 7 19 21 9 3 0 -4 1 5 2 9 13 6 2 7 14 12 6 3 2 4 4 7 9 9 11 7 5 7 7 8 13 19 15 9 7 5 7 7 4 5 7 6 7 9 9 8 7 9
8 9 9 11 14 16 17 17 17 16 16 16 15 16 16 16 17 20 24 21 14 -2 -9 3 8 5 7 6 10 7 2 8 7 7 7 0 13 34 28 7 2 1 -4 1 4 4 12 9 3 2 8 16 10 5 4 2 5 5 7 8 9 11 7 6 8 7 8 14 18 14 9 8 7 7 5 5 7 7 8 8 9 8 7 8 9
11 12 13 15 16 14 12 11 12 13 12 13 12 10 8 9 10 11 20 24 18 10 -2 -5 -2 4 9 5 7 12 6 4 6 11 1 5 41 45 16 2 2 0 -3 3 3 5 10 3 2 2 8 17 8 3 5 3 5 5 6 9 11 12 8 6 7 7 7 14 18 13 10 8 7 6 4 6 7 8 9 8 9 8 8 9 9
11 12 12 11 9 8 9 9 9 11 9 8 8 7 5 6 8 5 10 20 20 17 12 5 -1 -0 11 9 2 8 12 5 3 11 1 12 44 24 -1 2 1 -1 -1 4 4 4 6 1 3 2 8 17 7 2 4 4 5 5 6 10 15 13 8 7 7 7 6 10 15 13 9 6 5 5 4 5 7 9 9 8 9 8 9 9 8
10 9 7 5 8 10 10 9 9 9 9 7 6 5 5 4 6 6 5 11 18 21 21 17 6 2 13 10 -1 1 10 11 4 7 6 10 18 3 -1 2 -1 -1 -2 3 4 1 4 2 3 3 8 16 8 2 4 4 4 5 7 10 17 15 8 7 7 7 5 6 10 9 7 5 4 4 3 4 7 9 9 8 8 9 10 9 7
8 6 5 6 9 11 10 9 7 7 7 6 6 4 5 4 5 7 6 5 10 17 20 19 9 5 14 10 3 5 6 10 7 4 6 4 4 4 4 -1 -0 1 -3 4 5 -0 3 3 4 4 7 14 9 2 3 4 4 4 8 11 16 15 8 6 6 8 6 5 6 6 6 4 3 3 2 4 5 7 10 9 8 9 10 9 7
7 5 7 8 9 11 12 10 8 9 9 8 9 8 9 9 8 9 8 7 7 10 16 19 13 6 13 12 6 6 4 5 5 4 6 5 4 7 9 5 3 -0 -4 5 7 0 2 2 5 6 8 13 9 4 3 3 4 5 7 11 14 14 9 6 5 7 7 4 4 5 5 4 3 3 3 4 4 6 9 9 8 9 10 10 7
8 9 10 9 10 12 14 15 13 13 13 13 12 11 12 11 13 13 11 11 7 11 15 16 16 9 11 13 8 7 2 1 5 5 5 7 7 4 8 8 5 5 -1 0 7 2 -0 3 4 5 8 12 8 4 3 2 4 5 7 11 13 13 9 7 5 6 8 6 4 4 4 3 2 3 4 4 4 6 8 9 8 9 11 10 7
10 12 12 12 11 11 13 14 14 15 14 14 14 13 15 14 14 13 12 13 8 11 14 10 14 12 9 9 9 14 5 -0 7 7 6 7 7 3 4 6 7 14 6 -2 5 3 -2 3 4 5 9 11 8 3 1 2 4 4 7 10 13 14 10 7 6 5 7 8 6 4 3 3 2 3 4 3 4 6 8 10 8 8 10 10 8
11 12 12 11 9 9 11 14 14 15 14 14 16 15 16 15 12 10 10 10 7 10 12 13 14 8 11 11 9 15 9 3 7 5 7 9 8 5 4 6 5 13 12 1 2 3 -1 2 4 5 9 12 8 2 1 2 4 4 6 10 14 15 11 7 6 6 5 7 8 6 3 3 2 3 4 2 2 6 8 10 10 7 9 10 8
8 10 11 7 6 7 8 12 13 14 14 14 16 15 14 12 9 8 9 10 9 10 11 18 17 5 8 11 8 15 9 1 4 5 5 5 8 9 6 6 4 11 15 5 2 2 -1 1 5 4 8 12 9 4 3 2 4 5 6 10 15 15 12 7 5 7 5 5 8 9 8 5 3 3 3 1 0 4 8 11 12 8 8 10 9
7 9 10 7 5 7 7 9 11 13 13 12 12 9 7 7 9 13 14 14 12 11 12 16 17 12 11 7 6 16 16 6 4 6 5 2 6 10 9 6 5 13 13 5 3 1 -1 2 4 4 8 10 7 6 5 4 3 4 6 9 13 14 12 7 4 6 6 4 5 8 10 9 8 6 3 3 3 5 8 11 13 10 8 9 8
8 7 8 9 8 8 8 8 10 11 12 10 9 8 6 7 13 19 19 19 16 12 14 14 12 15 15 11 5 3 12 17 9 4 5 5 4 6 12 10 5 9 9 5 2 -0 -1 2 3 3 8 9 5 5 4 5 4 4 6 9 12 13 12 8 5 6 5 5 6 6 7 9 9 10 9 8 7 8 8 11 14 11 8 9 9
8 6 6 8 9 10 9 9 10 10 11 11 10 9 9 10 18 24 21 20 19 14 15 12 9 12 12 15 15 1 7 23 14 2 2 6 7 5 9 14 10 5 5 5 2 1 -1 1 4 3 6 10 5 3 5 5 5 4 5 8 11 13 13 9 5 6 5 5 8 6 6 7 8 10 11 11 11 11 10 11 14 12 8 8 9
7 5 6 9 11 12 10 9 9 9 10 11 10 11 9 11 20 25 20 18 19 16 14 9 7 13 9 8 13 5 12 29 18 3 2 4 8 7 4 8 8 4 4 5 1 1 0 -0 4 3 5 9 4 3 8 7 6 5 4 7 11 12 12 9 6 6 5 5 8 7 6 6 7 7 8 9 10 11 12 12 13 12 9 8 9
7 5 6 8 10 12 11 9 8 7 8 8 8 9 8 10 19 24 19 15 17 15 13 9 10 17 10 7 14 7 15 32 19 4 3 4 7 7 5 4 4 7 7 6 3 0 0 0 1 3 4 6 5 4 5 6 6 6 4 5 10 13 11 8 7 6 5 6 7 6 5 5 6 7 7 6 8 10 12 13 13 12 9 8 9
7 6 6 6 7 9 10 11 11 10 10 11 10 9 8 7 15 24 17 9 14 17 14 8 12 18 11 9 12 6 19 30 13 3 4 3 3 4 10 8 5 11 11 3 3 1 -1 1 2 3 3 3 6 5 3 5 5 6 6 5 10 14 9 7 9 9 6 6 6 6 4 5 6 6 7 7 6 8 10 12 12 13 11 7 8
6 7 7 5 6 7 10 12 13 13 12 14 15 13 12 7 11 21 16 8 11 15 14 9 12 16 13 13 7 8 28 30 9 5 7 2 -1 1 12 16 6 8 13 5 2 4 0 1 2 3 5 5 5 5 3 5 8 7 5 5 10 13 8 5 7 9 9 6 6 7 4 4 6 5 6 7 6 7 8 10 11 12 12 9 8
7 8 9 7 7 6 10 11 9 9 9 10 14 14 14 11 10 14 16 13 10 8 10 13 18 14 9 15 13 8 16 19 12 7 6 1 -1 3 10 18 13 4 11 12 2 4 1 -1 3 2 6 7 3 3 2 4 8 5 3 5 7 10 6 5 6 8 11 8 5 7 6 4 5 6 6 6 7 7 6 8 9 11 11 10 9
8 10 11 10 9 7 8 8 6 7 8 9 12 12 13 13 12 11 13 16 12 7 4 10 24 18 6 15 23 12 3 10 20 17 11 -3 -10 6 9 9 17 5 7 16 3 2 3 -1 3 2 5 7 3 2 0 5 8 3 6 8 7 9 5 5 10 9 10 10 7 8 8 6 5 5 5 5 6 7 6 7 7 9 10 11 10
9 10 13 13 11 10 8 6 6 7 8 9 11 13 13 13 13 10 10 14 13 9 5 10 24 15 -1 9 18 11 6 7 13 20 26 10 -5 8 5 1 15 6 7 21 8 1 2 -0 2 2 3 6 5 4 0 4 9 5 4 4 8 11 4 6 10 7 10 10 6 7 7 7 7 4 4 4 6 7 6 7 7 7 8 9 10
9 10 13 15 13 12 9 7 7 7 6 6 8 11 11 11 13 9 8 12 12 9 9 8 13 12 5 16 21 10 9 8 3 7 18 21 17 13 0 -0 11 6 10 23 13 3 2 0 1 2 3 5 6 5 1 3 9 9 2 -0 8 8 3 9 7 1 10 10 5 7 8 8 8 5 4 2 4 6 6 7 7 7 7 7 8
9 11 12 13 13 13 12 11 9 7 5 4 4 6 7 9 11 10 8 11 11 12 16 4 -3 7 7 16 35 25 10 7 1 3 8 14 22 17 6 6 4 -3 4 19 16 5 2 1 1 2 2 4 4 3 3 3 6 10 6 4 9 3 -1 11 7 -2 5 9 6 6 7 10 9 7 6 3 4 6 6 7 6 7 7 6 7
11 12 10 11 13 14 12 12 11 10 9 6 6 6 7 9 9 8 6 9 13 13 20 12 -3 7 5 8 38 32 8 8 8 11 15 9 12 16 14 15 10 -3 -3 18 25 6 -1 3 1 2 3 3 4 4 4 4 3 8 10 7 6 3 3 9 8 2 1 4 7 7 5 7 8 8 8 5 6 5 6 7 6 6 6 6 7
11 10 9 8 9 10 8 9 11 12 12 12 11 8 9 12 10 10 6 5 11 11 19 19 7 15 12 5 29 26 4 3 2 11 22 9 5 14 11 11 19 11 -1 17 29 7 -3 5 2 1 3 2 5 4 1 4 7 7 8 7 3 3 7 7 5 5 2 1 5 8 8 7 6 8 8 7 7 6 5 6 6 6 6 6 6
10 8 6 4 4 5 3 5 9 10 11 13 14 10 7 8 8 9 9 6 7 9 14 19 18 25 16 -1 10 18 16 16 3 3 14 3 2 20 18 4 14 23 6 6 22 11 -1 3 3 2 2 2 4 5 2 3 7 6 6 9 6 5 6 5 5 6 5 2 1 5 8 7 7 6 7 8 8 8 5 5 6 6 6 5 5
7 5 3 4 3 3 1 2 7 8 9 11 14 16 12 9 7 6 8 8 6 8 10 17 25 29 19 5 0 -2 12 35 29 14 8 0 4 17 16 2 9 25 11 4 21 17 3 3 4 3 3 2 3 5 5 2 4 5 7 11 10 6 4 3 5 6 6 6 5 4 5 6 7 7 8 8 8 10 7 6 6 6 6 6 5
Height
5857 5859 5861 5862 5863 5864 5865 5866 5866 5867 5868 5868 5869 5870 5870 5870 5870 5870 5870 5870 5871 5871 5872 5872 5873 5873 5874 5875 5875 5875 5875 5875 5875 5875 5876 5876 5876 5876 5875 5875 5875 5874 5874 5874 5874 5874 5873 5873 5873 5872 5872 5871 5871 5870 5870 5869 5868 5868 5867 5866 5866 5865 5864 5864 5863 5862 5861 5861 5860 5859 5859 5858 5857 5857 5856 5854 5853 5852 5851 5850 5849 5848 5847 5846 5845
5856 5858 5860 5861 5862 5863 5863 5864 5864 5865 5865 5866 5867 5868 5868 5868 5868 5868 5868 5868 5868 5869 5869 5870 5871 5872 5872 5873 5874 5874 5874 5874 5875 5875 5875 5875 5875 5875 5875 5874 5874 5874 5874 5874 5873 5873 5873 5873 5872 5872 5871 5871 5870 5870 5869 5868 5868 5867 5866 5866 5865 5864 5863 5863 5862 5861 5860 5860 5859 5858 5858 5857 5856 5856 5854 5853 5852 5851 5850 5849 5848 5847 5846 5845 5845
5855 5857 5858 5859 5860 5860 5861 5862 5863 5863 5864 5864 5865 5865 5865 5866 5866 5865 5865 5866 5866 5866 5867 5868 5869 5870 5871 5872 5872 5873 5873 5874 5874 5874 5874 5874 5874 5874 5874 5874 5874 5873 5873 5873 5873 5873 5873 5872 5872 5872 5871 5870 5870 5869 5868 5868 5867 5866 5866 5865 5864 5863 5863 5862 5861 5860 5859 5859 5858 5858 5857 5856 5855 5854 5853 5852 5851 5850 5848 5848 5847 5846 5845 5845 5844
5853 5855 5856 5857 5857 5858 5859 5860 5861 5861 5862 5862 5862 5862 5862 5862 5863 5863 5863 5863 5864 5865 5865 5866 5867 5868 5869 5870 5871 5871 5872 5872 5873 5873 5872 5872 5873 5873 5873 5873 5873 5873 5873 5873 5873 5873 5872 5872 5871 5871 5870 5870 5869 5868 5868 5867 5866 5866 5865 5864 5863 5863 5862 5861 5860 5859 5859 5858 5858 5857 5856 5855 5854 5853 5852 5850 5849 5848 5847 5846 5846 5845 5845 5844 5844
5851 5852 5854 5855 5856 5856 5856 5857 5858 5859 5859 5860 5860 5859 5859 5859 5859 5860 5861 5861 5862 5862 5863 5864 5865 5866 5867 5868 5869 5869 5870 5871 5871 5871 5871 5871 5872 5872 5872 5872 5872 5872 5872 5872 5872 5872 5872 5871 5871 5871 5870 5869 5868 5868 5867 5866 5866 5865 5864 5864 5863 5862 5861 5860 5859 5859 5858 5858 5857 5856 5856 5854 5853 5852 5850 5849 5848 5847 5846 5846 5845 5845 5845 5844 5844
5849 5850 5851 5853 5853 5854 5854 5854 5855 5855 5856 5856 5857 5856 5855 5855 5856 5857 5858 5858 5859 5860 5861 5861 5862 5863 5864 5865 5866 5867 5868 5869 5870 5870 5870 5870 5870 5871 5871 5871 5871 5871 5871 5871 5871 5871 5871 5870 5870 5870 5869 5868 5868 5867 5866 5866 5865 5864 5864 5863 5862 5861 5861 5860 5859 5858 5858 5857 5856 5856 5855 5853 5852 5851 5849 5848 5847 5846 5846 5846 5845 5845 5845 5844 5844
5848 5848 5849 5849 5850 5850 5850 5851 5851 5851 5852 5852 5853 5852 5852 5852 5852 5853 5854 5855 5856 5857 5858 5859 5859 5860 5861 5862 5863 5865 5866 5867 5868 5868 5868 5869 5869 5869 5870 5870 5871 5871 5871 5871 5871 5870 5870 5870 5869 5869 5868 5867 5867 5866 5866 5865 5864 5863 5863 5862 5861 5861 5860 5859 5858 5858 5857 5856 5856 5855 5853 5852 5851 5850 5848 5847 5846 5846 5846 5846 5845 5845 5845 5845 5845
5845 5846 5846 5845 5844 5844 5845 5845 5845 5846 5847 5847 5848 5848 5848 5848 5849 5850 5851 5852 5853 5854 5855 5856 5857 5858 5859 5860 5861 5862 5864 5865 5866 5866 5866 5867 5867 5867 5868 5869 5870 5870 5871 5870 5870 5870 5869 5869 5868 5868 5867 5867 5866 5866 5865 5864 5863 5863 5862 5861 5861 5860 5859 5859 5858 5857 5856 5856 5855 5853 5852 5851 5850 5849 5847 5847 5846 5846 5846 5846 5846 5846 5845 5845 5845
5840 5840 5838 5836 5835 5835 5837 5838 5839 5840 5841 5842 5844 5844 5845 5846 5847 5848 5849 5850 5851 5852 5853 5854 5855 5856 5857 5858 5859 5860 5861 5862 5863 5864 5864 5865 5865 5866 5866 5868 5869 5870 5870 5870 5869 5869 5869 5868 5868 5868 5867 5866 5866 5865 5864 5863 5863 5862 5861 5861 5860 5859 5859 5858 5857 5856 5855 5855 5854 5852 5851 5850 5849 5848 5847 5846 5846 5846 5846 5846 5846 5846 5846 5846 5846
5830 5829 5828 5828 5827 5828 5829 5830 5832 5833 5834 5836 5837 5839 5840 5841 5843 5844 5846 5847 5849 5850 5851 5852 5853 5854 5855 5856 5857 5857 5858 5859 5860 5861 5862 5863 5863 5864 5865 5866 5868 5869 5869 5869 5869 5868 5868 5868 5867 5867 5866 5865 5865 5864 5864 5863 5862 5861 5861 5860 5860 5859 5858 5857 5856 5855 5855 5854 5853 5852 5850 5849 5848 5847 5847 5846 5847 5847 5847 5847 5847 5847 5847 5846 5846
5826 5826 5827 5828 5829 5829 5829 5829 5830 5831 5832 5833 5834 5834 5835 5836 5838 5839 5841 5844 5846 5847 5849 5850 5851 5852 5853 5854 5855 5856 5856 5857 5858 5859 5860 5861 5862 5863 5864 5865 5866 5867 5868 5868 5868 5868 5868 5867 5867 5866 5865 5865 5864 5864 5863 5862 5862 5861 5860 5860 5859 5858 5858 5857 5856 5855 5854 5853 5852 5851 5850 5849 5848 5847 5847 5847 5847 5847 5847 5848 5848 5848 5847 5847 5846
5829 5830 5830 5830 5832 5832 5831 5831 5833 5833 5834 5835 5835 5834 5833 5835 5835 5835 5836 5839 5842 5844 5846 5848 5849 5850 5850 5851 5853 5854 5854 5855 5855 5856 5858 5860 5861 5862 5862 5864 5865 5866 5867 5867 5867 5867 5867 5866 5866 5865 5864 5864 5863 5862 5862 5862 5861 5860 5860 5859 5859 5858 5857 5856 5855 5854 5854 5853 5852 5850 5849 5848 5848 5847 5847 5847 5847 5848 5848 5848 5848 5848 5848 5847 5847
5831 5831 5831 5832 5833 5833 5832 5833 5834 5835 5836 5837 5838 5837 5836 5836 5835 5834 5833 5836 5839 5841 5844 5845 5847 5848 5849 5850 5851 5852 5852 5853 5854 5854 5856 5858 5859 5860 5861 5862 5863 5865 5866 5866 5866 5866 5866 5865 5865 5864 5863 5863 5862 5861 5861 5861 5860 5859 5859 5859 5858 5857 5857 5856 5855 5854 5853 5852 5851 5850 5849 5848 5848 5847 5847 5848 5848 5848 5849 5849 5849 5848 5848 5848 5848
5829 5830 5830 5831 5831 5831 5831 5832 5833 5835 5836 5836 5838 5839 5840 5839 5838 5836 5836 5836 5838 5839 5841 5843 5845 5846 5847 5848 5849 5850 5851 5852 5852 5853 5854 5856 5857 5859 5860 5861 5862 5863 5865 5865 5865 5865 5865 5864 5864 5863 5862 5862 5861 5860 5860 5860 5859 5859 5858 5858 5858 5857 5856 5856 5855 5854 5853 5852 5851 5849 5849 5848 5848 5848 5848 5848 5848 5849 5849 5849 5849 5848 5849 5849 5848
5826 5827 5829 5829 5828 5829 5829 5829 5830 5833 5834 5835 5836 5838 5840 5840 5840 5839 5839 5839 5839 5839 5840 5841 5843 5845 5846 5847 5848 5849 5849 5850 5851 5851 5852 5854 5855 5857 5858 5859 5860 5862 5863 5864 5864 5864 5863 5863 5862 5862 5861 5861 5860 5860 5859 5859 5858 5858 5857 5857 5857 5856 5856 5855 5855 5854 5853 5852 5851 5849 5848 5848 5848 5848 5849 5849 5849 5849 5849 5849 5849 5849 5849 5849 5849
5825 5826 5827 5827 5827 5828 5828 5828 5829 5831 5834 5835 5836 5837 5838 5839 5838 5837 5838 5839 5839 5839 5839 5840 5841 5843 5844 5845 5846 5847 5848 5849 5849 5850 5851 5852 5853 5855 5857 5858 5859 5861 5862 5863 5863 5863 5862 5861 5861 5861 5861 5860 5859 5859 5858 5858 5857 5857 5857 5857 5856 5856 5855 5855 5854 5853 5852 5851 5850 5849 5848 5848 5849 5849 5849 5849 5849 5849 5849 5849 5849 5849 5849 5849 5849
5824 5824 5824 5825 5826 5826 5827 5828 5828 5829 5831 5833 5834 5834 5835 5836 5836 5835 5835 5836 5837 5838 5838 5839 5839 5841 5842 5843 5844 5846 5847 5848 5848 5849 5849 5850 5852 5854 5856 5857 5858 5859 5861 5862 5862 5862 5861 5861 5860 5860 5860 5859 5859 5858 5857 5857 5857 5856 5856 5856 5856 5855 5855 5854 5854 5853 5852 5851 5850 5849 5849 5849 5849 5849 5849 5850 5849 5849 5849 5849 5849 5849 5849 5849 5848
5822 5822 5823 5824 5824 5824 5825 5826 5827 5828 5829 5830 5832 5833 5833 5834 5834 5833 5833 5834 5835 5836 5836 5836 5837 5838 5840 5841 5842 5843 5845 5846 5847 5848 5848 5849 5851 5852 5854 5855 5856 5858 5860 5861 5861 5861 5861 5860 5860 5859 5859 5859 5858 5857 5857 5856 5856 5856 5856 5855 5855 5855 5854 5854 5853 5852 5852 5851 5850 5849 5849 5850 5850 5850 5850 5850 5850 5850 5850 5850 5849 5849 5849 5849 5849
5820 5820 5821 5822 5822 5823 5823 5824 5825 5826 5827 5827 5830 5832 5832 5832 5831 5831 5831 5832 5833 5834 5835 5835 5835 5836 5838 5839 5840 5841 5843 5844 5845 5847 5847 5848 5849 5851 5853 5854 5855 5857 5858 5859 5860 5860 5860 5860 5860 5859 5859 5858 5857 5857 5856 5856 5856 5856 5855 5855 5855 5854 5854 5853 5853 5852 5851 5851 5850 5850 5850 5850 5850 5850 5850 5850 5850 5850 5850 5849 5849 5849 5849 5849 5849
5817 5817 5819 5820 5820 5820 5821 5822 5822 5824 5825 5825 5827 5829 5831 5831 5829 5829 5830 5831 5831 5832 5833 5833 5834 5835 5836 5838 5838 5840 5841 5842 5843 5845 5846 5846 5848 5850 5851 5852 5853 5855 5856 5858 5859 5859 5859 5859 5859 5858 5858 5857 5856 5856 5856 5856 5855 5855 5855 5855 5854 5854 5853 5853 5852 5852 5851 5851 5850 5850 5850 5851 5851 5851 5850 5850 5850 5850 5850 5849 5849 5849 5849 5849 5849
5814 5814 5815 5817 5817 5818 5819 5819 5820 5821 5822 5823 5824 5825 5828 5828 5827 5826 5827 5829 5829 5830 5831 5831 5832 5833 5835 5837 5837 5838 5839 5840 5841 5843 5844 5845 5846 5848 5850 5851 5852 5853 5855 5857 5858 5858 5858 5859 5858 5858 5857 5856 5856 5855 5855 5855 5855 5855 5855 5855 5854 5854 5853 5853 5852 5852 5851 5851 5851 5850 5851 5851 5851 5851 5851 5851 5850 5850 5850 5849 5849 5849 5849 5849 5849
5810 5811 5812 5814 5815 5816 5817 5817 5817 5818 5819 5820 5821 5821 5823 5823 5824 5825 5825 5827 5827 5828 5829 5830 5830 5831 5833 5835 5836 5836 5837 5839 5840 5841 5842 5843 5844 5846 5848 5850 5851 5852 5853 5855 5856 5857 5857 5857 5857 5857 5857 5856 5855 5855 5855 5855 5854 5854 5854 5854 5854 5853 5853 5852 5852 5852 5851 5851 5851 5851 5851 5851 5851 5851 5851 5851 5850 5850 5850 5849 5849 5849 5849 5849 5849
5808 5808 5809 5811 5812 5814 5815 5815 5815 5816 5816 5817 5818 5818 5818 5818 5821 5824 5825 5825 5826 5827 5828 5829 5829 5829 5830 5832 5834 5835 5836 5837 5838 5839 5840 5842 5843 5844 5846 5848 5849 5850 5852 5853 5855 5855 5856 5856 5856 5856 5856 5855 5855 5854 5855 5854 5854 5854 5854 5854 5854 5853 5853 5852 5852 5852 5851 5851 5851 5852 5852 5852 5852 5852 5851 5851 5851 5850 5850 5850 5850 5850 5850 5850 5849
5807 5806 5807 5809 5810 5811 5812 5813 5813 5814 5814 5814 5815 5814 5815 5815 5817 5821 5823 5823 5825 5826 5827 5827 5828 5829 5829 5830 5831 5833 5835 5836 5837 5838 5838 5839 5841 5842 5844 5846 5848 5849 5851 5852 5853 5854 5855 5855 5855 5855 5855 5854 5854 5854 5854 5854 5854 5854 5854 5854 5854 5853 5853 5852 5852 5852 5852 5851 5852 5852 5852 5852 5852 5852 5852 5851 5851 5850 5850 5850 5850 5850 5850 5850 5850
5805 5805 5805 5807 5808 5809 5809 5810 5810 5811 5811 5812 5812 5811 5812 5813 5814 5816 5819 5820 5821 5824 5825 5825 5826 5827 5828 5828 5829 5830 5833 5834 5835 5836 5837 5837 5838 5840 5842 5844 5847 5848 5849 5851 5852 5853 5853 5854 5854 5855 5854 5853 5853 5854 5854 5854 5854 5854 5854 5854 5854 5853 5853 5853 5852 5852 5852 5852 5852 5852 5852 5852 5852 5852 5852 5852 5852 5851 5851 5851 5851 5851 5851 5851 5850
5802 5803 5804 5805 5806 5806 5807 5807 5807 5808 5809 5810 5810 5810 5809 5810 5811 5812 5814 5816 5817 5820 5822 5823 5823 5824 5826 5826 5827 5828 5830 5833 5834 5834 5835 5835 5835 5837 5840 5843 5845 5847 5848 5850 5850 5851 5852 5853 5854 5854 5854 5853 5853 5853 5854 5854 5854 5854 5854 5854 5854 5853 5853 5853 5853 5852 5852 5852 5852 5853 5853 5853 5853 5853 5853 5853 5852 5852 5851 5851 5851 5851 5851 5851 5851
5800 5800 5801 5803 5804 5803 5804 5804 5803 5804 5805 5807 5808 5808 5806 5807 5808 5809 5810 5812 5813 5816 5818 5821 5821 5820 5823 5824 5825 5826 5828 5831 5832 5833 5834 5834 5833 5835 5838 5842 5844 5845 5847 5848 5849 5850 5851 5852 5853 5853 5853 5853 5853 5853 5853 5854 5854 5853 5853 5853 5854 5854 5853 5853 5853 5853 5853 5853 5853 5853 5853 5853 5854 5854 5854 5853 5853 5853 5852 5852 5852 5852 5852 5851 5851
5797 5798 5799 5800 5801 5801 5801 5801 5801 5801 5802 5803 5805 5805 5804 5804 5805 5806 5808 5809 5810 5812 5815 5818 5818 5818 5820 5821 5822 5824 5826 5829 5831 5831 5832 5833 5832 5834 5837 5840 5842 5844 5845 5847 5848 5849 5850 5851 5852 5852 5852 5852 5852 5853 5853 5854 5854 5853 5853 5853 5853 5853 5854 5853 5853 5853 5853 5853 5854 5854 5854 5854 5854 5855 5855 5854 5854 5853 5853 5853 5853 5852 5852 5852 5852
5794 5794 5795 5797 5798 5799 5798 5798 5798 5799 5800 5800 5801 5801 5802 5802 5803 5804 5806 5806 5807 5809 5812 5815 5816 5816 5817 5819 5821 5822 5824 5826 5828 5829 5830 5831 5832 5834 5836 5839 5840 5842 5844 5845 5847 5848 5849 5850 5851 5852 5852 5851 5852 5852 5853 5853 5853 5853 5852 5852 5853 5853 5854 5854 5854 5854 5854 5854 5854 5854 5854 5854 5855 5855 5855 5855 5854 5854 5854 5854 5853 5853 5853 5853 5853
5791 5791 5792 5793 5794 5795 5795 5795 5795 5796 5797 5797 5797 5797 5798 5799 5801 5802 5803 5803 5804 5806 5809 5811 5812 5812 5813 5816 5818 5820 5822 5824 5826 5827 5828 5830 5831 5833 5835 5837 5839 5841 5842 5843 5845 5847 5848 5849 5850 5851 5851 5850 5851 5852 5852 5853 5853 5852 5852 5852 5852 5853 5853 5853 5854 5854 5854 5855 5855 5854 5854 5854 5855 5855 5856 5855 5855 5855 5855 5855 5854 5854 5854 5853 5853
5788 5788 5789 5789 5790 5791 5792 5793 5792 5793 5794 5794 5794 5793 5794 5795 5797 5799 5800 5800 5801 5802 5804 5806 5807 5809 5809 5811 5814 5817 5819 5821 5823 5825 5826 5827 5829 5831 5834 5835 5837 5839 5840 5842 5843 5845 5847 5848 5849 5850 5850 5849 5850 5851 5852 5852 5852 5852 5851 5852 5852 5852 5853 5853 5854 5854 5854 5855 5855 5855 5855 5855 5855 5855 5856 5856 5856 5856 5856 5855 5855 5855 5855 5854 5854
5785 5786 5786 5786 5786 5787 5789 5790 5790 5790 5791 5792 5791 5791 5790 5791 5793 5795 5797 5797 5797 5799 5800 5800 5803 5806 5807 5808 5811 5814 5816 5817 5819 5822 5824 5825 5827 5829 5831 5833 5836 5838 5839 5840 5842 5843 5845 5847 5848 5849 5849 5848 5849 5850 5851 5851 5851 5851 5851 5851 5851 5852 5852 5853 5854 5854 5854 5855 5855 5855 5855 5855 5855 5855 5856 5856 5856 5856 5856 5856 5856 5856 5855 5855 5855
5783 5783 5783 5783 5783 5784 5785 5787 5787 5788 5788 5789 5788 5788 5788 5787 5789 5791 5793 5794 5794 5795 5796 5795 5798 5802 5804 5805 5807 5810 5813 5814 5816 5819 5821 5823 5825 5826 5828 5831 5834 5836 5837 5838 5840 5842 5844 5846 5847 5847 5847 5847 5848 5849 5850 5850 5850 5850 5850 5851 5851 5851 5852 5853 5854 5854 5855 5855 5855 5855 5855 5855 5855 5855 5856 5856 5856 5857 5857 5856 5856 5856 5856 5856 5856
5780 5780 5780 5780 5780 5781 5782 5783 5785 5785 5785 5786 5785 5786 5786 5786 5786 5787 5789 5790 5790 5792 5793 5793 5795 5798 5800 5802 5804 5807 5809 5811 5813 5815 5818 5821 5823 5824 5826 5828 5831 5833 5835 5836 5838 5840 5842 5844 5845 5846 5846 5847 5848 5848 5849 5849 5849 5849 5850 5850 5851 5851 5851 5852 5853 5854 5855 5855 5855 5855 5855 5855 5855 5855 5856 5856 5856 5857 5857 5857 5857 5857 5857 5857 5857
5777 5777 5777 5777 5777 5778 5779 5780 5781 5782 5782 5782 5783 5783 5783 5784 5784 5784 5785 5786 5786 5788 5790 5791 5792 5794 5797 5799 5801 5803 5805 5807 5809 5811 5815 5817 5820 5822 5824 5826 5828 5831 5833 5834 5836 5838 5840 5842 5844 5845 5845 5846 5847 5847 5848 5848 5849 5849 5849 5850 5850 5850 5851 5852 5853 5854 5854 5855 5855 5855 5855 5855 5855 5855 5855 5856 5856 5857 5857 5857 5857 5857 5857 5857 5857
5775 5775 5774 5774 5775 5775 5776 5777 5778 5779 5779 5780 5780 5780 5781 5781 5781 5781 5782 5782 5782 5784 5786 5788 5788 5790 5793 5795 5798 5800 5802 5803 5805 5808 5811 5814 5816 5819 5822 5824 5826 5828 5830 5832 5834 5836 5838 5840 5842 5843 5844 5845 5845 5846 5847 5847 5847 5848 5849 5849 5849 5850 5850 5851 5852 5853 5854 5854 5854 5855 5855 5855 5855 5855 5855 5855 5856 5856 5856 5857 5857 5857 5857 5857 5858
5772 5772 5772 5772 5772 5772 5773 5774 5775 5775 5776 5777 5777 5777 5778 5778 5778 5778 5778 5778 5778 5780 5782 5783 5785 5786 5790 5793 5795 5797 5798 5799 5801 5804 5807 5810 5813 5816 5819 5821 5823 5826 5828 5830 5832 5834 5836 5837 5840 5841 5843 5844 5844 5844 5845 5846 5846 5847 5848 5848 5849 5849 5850 5850 5851 5852 5853 5854 5853 5854 5855 5855 5855 5855 5856 5855 5855 5856 5856 5856 5857 5857 5858 5858 5858
5770 5770 5770 5769 5769 5770 5770 5771 5772 5772 5773 5774 5774 5774 5775 5775 5775 5774 5774 5774 5775 5776 5778 5780 5782 5784 5787 5790 5791 5793 5794 5795 5797 5801 5803 5807 5809 5812 5816 5819 5821 5823 5826 5828 5830 5831 5833 5835 5838 5840 5841 5842 5843 5843 5844 5845 5845 5846 5847 5848 5848 5848 5849 5850 5850 5851 5852 5853 5853 5854 5854 5854 5855 5855 5856 5855 5855 5855 5856 5856 5856 5857 5857 5858 5858
5768 5767 5767 5767 5767 5767 5768 5768 5769 5769 5770 5771 5771 5772 5772 5772 5771 5772 5771 5771 5772 5773 5774 5777 5779 5781 5783 5785 5787 5789 5790 5791 5794 5797 5800 5804 5806 5809 5813 5816 5819 5821 5824 5826 5828 5829 5831 5833 5835 5838 5839 5841 5842 5842 5843 5844 5844 5845 5846 5847 5847 5848 5849 5849 5850 5851 5852 5853 5853 5854 5854 5854 5855 5855 5855 5856 5856 5856 5856 5856 5856 5856 5857 5858 5859
5766 5765 5765 5765 5765 5765 5765 5765 5766 5766 5767 5768 5769 5769 5769 5769 5769 5769 5769 5769 5769 5770 5772 5774 5775 5777 5779 5781 5783 5786 5786 5788 5791 5795 5797 5801 5804 5807 5810 5813 5817 5819 5821 5824 5827 5828 5829 5831 5833 5835 5837 5839 5840 5842 5842 5842 5843 5843 5845 5846 5846 5847 5848 5849 5849 5850 5851 5852 5853 5853 5854 5854 5854 5855 5855 5856 5856 5856 5856 5855 5855 5856 5857 5858 5859
5764 5763 5763 5763 5763 5763 5763 5763 5763 5764 5764 5765 5766 5766 5766 5766 5766 5767 5767 5767 5767 5768 5769 5770 5771 5774 5776 5778 5780 5783 5784 5785 5788 5792 5795 5798 5801 5805 5808 5811 5814 5817 5819 5822 5825 5826 5827 5829 5831 5833 5835 5837 5839 5840 5841 5841 5842 5843 5844 5845 5846 5846 5847 5848 5849 5849 5850 5851 5852 5853 5853 5854 5854 5854 5855 5855 5856 5856 5856 5856 5856 5856 5856 5857 5858
5762 5761 5761 5761 5761 5761 5761 5761 5761 5761 5762 5762 5763 5763 5764 5764 5764 5764 5765 5765 5765 5765 5766 5766 5768 5770 5772 5775 5777 5779 5780 5782 5785 5789 5792 5796 5799 5802 5805 5809 5812 5814 5816 5819 5822 5825 5826 5827 5829 5832 5834 5835 5837 5839 5839 5840 5841 5842 5842 5843 5845 5846 5847 5848 5848 5848 5849 5850 5851 5852 5853 5853 5854 5854 5854 5855 5855 5855 5856 5856 5856 5856 5856 5857 5858
5760 5760 5759 5759 5759 5760 5760 5759 5759 5759 5759 5759 5760 5760 5761 5761 5762 5762 5762 5762 5763 5763 5763 5764 5765 5767 5769 5771 5773 5776 5778 5780 5783 5786 5789 5792 5796 5799 5802 5806 5809 5811 5814 5817 5820 5823 5824 5826 5828 5829 5832 5834 5836 5837 5838 5839 5840 5841 5841 5843 5844 5845 5846 5847 5847 5848 5848 5849 5850 5851 5852 5852 5853 5853 5854 5854 5855 5855 5855 5856 5856 5856 5856 5857 5858
5758 5757 5757 5757 5757 5758 5758 5757 5757 5757 5757 5757 5757 5758 5758 5759 5759 5759 5760 5760 5760 5760 5760 5762 5763 5764 5766 5768 5770 5773 5775 5778 5781 5783 5786 5789 5793 5796 5799 5802 5805 5809 5811 5814 5817 5820 5823 5825 5826 5827 5830 5832 5833 5835 5836 5838 5838 5839 5840 5842 5844 5845 5846 5846 5846 5847 5847 5848 5848 5849 5850 5851 5852 5853 5853 5854 5854 5855 5855 5855 5856 5856 5857 5857 5857
5755 5755 5755 5755 5755 5756 5756 5755 5755 5755 5755 5755 5754 5755 5756 5756 5756 5757 5757 5758 5758 5757 5757 5759 5760 5760 5761 5764 5766 5769 5772 5775 5777 5779 5782 5786 5790 5793 5796 5799 5803 5806 5809 5812 5815 5817 5820 5823 5824 5825 5827 5829 5831 5833 5835 5836 5837 5838 5839 5840 5843 5844 5845 5845 5845 5846 5846 5847 5847 5848 5849 5850 5851 5851 5852 5853 5854 5854 5855 5855 5855 5856 5856 5857 5857
5753 5753 5753 5753 5753 5753 5754 5753 5753 5753 5753 5753 5752 5752 5753 5754 5754 5754 5755 5755 5756 5755 5755 5757 5758 5757 5758 5761 5763 5765 5768 5771 5773 5776 5779 5783 5787 5790 5793 5796 5799 5803 5807 5810 5812 5815 5818 5821 5822 5823 5825 5827 5829 5831 5833 5835 5836 5837 5838 5839 5841 5842 5844 5844 5845 5845 5845 5846 5847 5847 5848 5849 5850 5850 5851 5852 5852 5853 5854 5854 5855 5855 5856 5856 5857
5751 5751 5751 5750 5751 5751 5751 5751 5751 5751 5751 5751 5750 5750 5751 5751 5752 5752 5752 5753 5753 5752 5753 5754 5754 5754 5755 5757 5759 5761 5764 5767 5770 5773 5776 5779 5783 5786 5789 5791 5794 5798 5803 5806 5810 5813 5816 5819 5821 5821 5823 5825 5827 5829 5831 5833 5834 5836 5836 5838 5839 5840 5841 5843 5843 5844 5845 5846 5847 5847 5848 5848 5849 5849 5850 5850 5851 5852 5853 5853 5854 5855 5855 5856 5856
5749 5749 5748 5748 5748 5749 5749 5749 5749 5749 5749 5749 5748 5748 5748 5749 5749 5749 5749 5750 5750 5750 5751 5751 5751 5753 5753 5753 5755 5758 5761 5765 5767 5770 5773 5776 5780 5783 5786 5788 5790 5794 5799 5803 5806 5809 5813 5816 5818 5820 5820 5822 5825 5827 5829 5830 5832 5833 5834 5836 5837 5838 5840 5841 5842 5843 5845 5845 5846 5846 5847 5847 5848 5848 5849 5849 5850 5851 5851 5852 5853 5854 5854 5855 5856
5747 5747 5746 5746 5746 5746 5746 5747 5746 5746 5747 5747 5746 5746 5746 5746 5747 5746 5746 5747 5747 5747 5747 5747 5748 5750 5750 5751 5753 5756 5759 5761 5764 5767 5770 5774 5777 5780 5783 5785 5787 5789 5794 5798 5802 5805 5809 5813 5815 5817 5818 5820 5822 5825 5827 5828 5830 5831 5833 5834 5836 5837 5838 5839 5840 5842 5843 5844 5845 5845 5846 5846 5847 5847 5847 5848 5848 5849 5850 5851 5852 5853 5853 5854 5855
5745 5745 5744 5744 5744 5744 5744 5744 5743 5744 5744 5744 5744 5744 5743 5743 5744 5744 5743 5743 5744 5744 5744 5744 5744 5746 5748 5750 5751 5753 5756 5757 5760 5764 5767 5770 5774 5776 5778 5781 5783 5784 5788 5793 5797 5801 5805 5808 5811 5813 5815 5817 5820 5822 5824 5826 5828 5830 5831 5833 5834 5835 5835 5836 5838 5840 5842 5843 5844 5845 5845 5846 5846 5846 5847 5847 5847 5848 5849 5850 5851 5851 5852 5853 5854
5743 5743 5743 5742 5742 5741 5741 5741 5741 5741 5741 5741 5741 5741 5741 5740 5741 5740 5740 5740 5740 5740 5740 5741 5741 5743 5746 5748 5748 5750 5752 5754 5756 5760 5763 5766 5770 5772 5773 5775 5778 5781 5784 5789 5794 5797 5801 5805 5808 5810 5812 5814 5817 5819 5821 5823 5825 5827 5829 5830 5832 5832 5833 5834 5835 5838 5840 5841 5842 5843 5844 5844 5845 5846 5846 5846 5847 5847 5847 5848 5849 5850 5851 5852 5852